EW1159 Weather Reports


time (UTC)temp
C
wind
direction
speed
KPH
gust
KPH
rain 1hr
cm
rain 24hr
cm
rain mn
cm
humidity
%
barometer
mb
20260503051502 13 278 11.3 20.9 0.00 0.00 0.00 31 985.4
20260503050002 13 290 9.7 20.9 0.00 0.00 0.00 31 985.3
20260503044501 13 280 8.0 17.7 0.00 0.00 0.00 31 985.2
20260503043000 13 252 9.7 19.3 0.00 0.00 0.00 30 985.2
20260503041613 14 278 8.0 19.3 0.00 0.00 0.00 30 985.0
20260503040059 14 249 6.4 16.1 0.00 0.00 0.00 30 985.0
20260503034559 15 281 6.4 17.7 0.00 0.00 0.00 30 984.8
20260503033116 15 283 8.0 17.7 0.00 0.00 0.00 30 984.8
20260503031558 15 262 4.8 12.9 0.00 0.00 0.00 29 984.6
20260503030106 16 281 0.0 8.0 0.00 0.00 0.00 28 984.5
20260503024602 16 265 6.4 14.5 0.00 0.00 0.00 26 984.4
20260503023057 17 273 9.7 17.7 0.00 0.00 0.00 25 984.4
20260503021601 18 227 1.6 16.1 0.00 0.00 0.00 25 984.5
20260503020101 17 249 11.3 20.9 0.00 0.00 0.00 24 984.4
20260503014553 18 197 4.8 14.5 0.00 0.00 0.00 30 984.6
20260503013050 18 208 11.3 17.7 0.00 0.00 0.00 31 984.8
20260503011601 18 249 4.8 14.5 0.00 0.00 0.00 28 984.8
20260503010048 18 194 1.6 9.7 0.00 0.00 0.00 30 985.0
20260503004547 18 170 0.0 12.9 0.00 0.00 0.00 29 985.1
20260503003043 18 212 4.8 16.1 0.00 0.00 0.00 30 985.3
20260503001544 18 210 0.0 9.7 0.00 0.00 0.00 30 985.5
20260503000038 18 160 4.8 14.5 0.00 0.00 0.00 33 985.5
20260502234545 18 170 8.0 19.3 0.00 0.00 0.00 34 985.7
20260502233034 17 122 11.3 17.7 0.00 0.00 0.00 36 985.9
20260502231535 17 150 4.8 22.5 0.00 0.00 0.00 36 986.2
20260502230030 18 123 1.6 14.5 0.00 0.00 0.00 37 986.3
20260502224530 17 39 1.6 19.3 0.00 0.00 0.00 36 986.4
20260502223026 18 170 9.7 17.7 0.00 0.00 0.00 36 986.7
20260502221524 17 147 9.7 22.5 0.00 0.00 0.00 37 986.9
20260502220027 17 219 8.0 22.5 0.00 0.00 0.00 36 987.2
20260502214517 16 141 8.0 19.3 0.00 0.00 0.00 38 987.4
20260502213026 16 177 11.3 22.5 0.00 0.00 0.00 40 987.6
20260502211514 16 135 4.8 19.3 0.00 0.00 0.00 41 987.7
20260502210011 16 162 12.9 27.4 0.00 0.00 0.00 41 988.0
20260502204509 16 137 8.0 17.7 0.00 0.00 0.00 40 988.2
20260502203006 15 122 4.8 16.1 0.00 0.00 0.00 42 988.4
20260502201505 15 125 8.0 17.7 0.00 0.00 0.00 43 988.7
20260502200003 15 112 8.0 16.1 0.00 0.00 0.00 42 988.8
20260502194603 15 135 8.0 14.5 0.00 0.00 0.00 43 989.1
20260502193057 14 153 4.8 17.7 0.00 0.00 0.00 46 989.3
20260502191610 13 136 1.6 22.5 0.00 0.00 0.00 46 989.5
20260502190105 14 74 6.4 19.3 0.00 0.00 0.00 47 989.6
20260502184550 13 200 14.5 27.4 0.00 0.00 0.00 47 989.8
20260502183057 13 132 9.7 17.7 0.00 0.00 0.00 48 990.0
20260502181546 13 108 6.4 17.7 0.00 0.00 0.00 47 990.2
20260502163049 11 129 0.0 12.9 0.00 0.00 0.00 53 991.2
20260502161525 10 132 1.6 11.3 0.00 0.00 0.00 55 991.4
20260502151519 9 129 0.0 0.0 0.00 0.00 0.00 58 991.6
20260502130109 7 317 0.0 0.0 0.00 0.00 0.00 69 991.3
20260502123105 7 336 0.0 8.0 0.00 0.00 0.00 69 991.2
20260502121559 7 354 1.6 8.0 0.00 0.00 0.00 68 991.2
20260502114553 7 337 0.0 8.0 0.00 0.00 0.00 66 991.1
20260502113053 7 353 1.6 11.3 0.00 0.00 0.00 66 991.1
20260502111550 8 345 0.0 11.3 0.00 0.00 0.00 64 991.0
20260502110048 7 337 0.0 9.7 0.00 0.00 0.00 66 991.2
20260502104546 8 315 6.4 14.5 0.00 0.00 0.00 65 991.1
20260502103045 8 313 6.4 14.5 0.00 0.00 0.00 65 991.0
20260502101543 8 335 4.8 14.5 0.00 0.00 0.00 64 991.0
20260502091533 9 301 8.0 14.5 0.00 0.00 0.00 63 990.8
20260502071521 8 281 4.8 9.7 0.00 0.00 0.00 65 990.5
20260502070017 8 283 0.0 3.2 0.00 0.00 0.00 66 990.5
20260502064532 8 287 1.6 9.7 0.00 0.00 0.00 66 990.4
20260502063015 8 281 0.0 1.6 0.00 0.00 0.00 66 990.4
20260502061513 8 291 0.0 0.0 0.00 0.00 0.00 66 990.3
20260502060014 8 281 0.0 0.0 0.00 0.00 0.00 66 990.2
20260502054511 8 254 0.0 1.6 0.00 0.00 0.00 66 990.2
20260502053009 9 262 0.0 8.0 0.00 0.00 0.00 66 990.0